ARA227 FMEE-FMCZ

Flight info

Callsign ARA227
Flight time 1h 54m
Altitude 32000
Route DOBUT2N DOBUT UB790 SOAVI
Aircraft B737/M-SDE2E3FGHIRWXY/LB1

Departure

Time 2026-04-26 19:57
Airport Roland Garros Airport (FMEE)

Arrival

Time 2026-04-26 21:51
Airport Dzaoudzi Pamandzi International Airport (FMCZ)
Time Latitude Longitude Altitude Speed Heading
2026-04-26 19:02 -20.89089 55.51226 60 ft 0 kts 206°
2026-04-26 19:03 -20.89089 55.51227 60 ft 0 kts 206°
2026-04-26 19:03 -20.89090 55.51226 60 ft 0 kts 206°
2026-04-26 19:06 -20.89089 55.51226 60 ft 0 kts 206°
2026-04-26 19:11 -20.89089 55.51227 60 ft 0 kts 205°
2026-04-26 19:19 -20.89088 55.51227 60 ft 0 kts 204°
2026-04-26 19:24 -20.89074 55.51234 52 ft 3 kts 207°
2026-04-26 19:24 -20.89056 55.51245 54 ft 3 kts 212°
2026-04-26 19:24 -20.89024 55.51271 56 ft 8 kts 235°
2026-04-26 19:25 -20.89017 55.51289 58 ft 8 kts 278°
2026-04-26 19:25 -20.89017 55.51293 53 ft 9 kts 293°
2026-04-26 19:25 -20.89020 55.51300 55 ft 32 kts 296°
2026-04-26 19:29 -20.89090 55.51226 60 ft 0 kts 206°
2026-04-26 19:32 -20.89089 55.51226 60 ft 0 kts 206°
2026-04-26 19:37 -20.89089 55.51227 60 ft 0 kts 206°
2026-04-26 19:40 -20.89078 55.51232 54 ft 3 kts 207°
2026-04-26 19:41 -20.89061 55.51242 51 ft 3 kts 211°
2026-04-26 19:41 -20.89044 55.51254 54 ft 3 kts 216°
2026-04-26 19:41 -20.89028 55.51268 71 ft 3 kts 228°
2026-04-26 19:41 -20.89020 55.51278 44 ft 3 kts 246°
2026-04-26 19:42 -20.89018 55.51297 54 ft 1 kts 296°
2026-04-26 19:42 -20.89020 55.51300 55 ft 0 kts 296°
2026-04-26 19:48 -20.89020 55.51301 55 ft 0 kts 296°
2026-04-26 19:50 -20.89020 55.51300 55 ft 1 kts 296°
2026-04-26 19:50 -20.89000 55.51257 54 ft 11 kts 296°
2026-04-26 19:51 -20.88968 55.51188 57 ft 5 kts 296°
2026-04-26 19:51 -20.88968 55.51187 57 ft 0 kts 296°
2026-04-26 19:51 -20.88967 55.51186 57 ft 1 kts 300°
2026-04-26 19:51 -20.88948 55.51179 58 ft 6 kts 346°
2026-04-26 19:52 -20.88873 55.51160 51 ft 16 kts 344°
2026-04-26 19:52 -20.88758 55.51102 50 ft 20 kts 299°
2026-04-26 19:52 -20.88701 55.50971 48 ft 19 kts 289°
2026-04-26 19:52 -20.88675 55.50834 43 ft 19 kts 281°
2026-04-26 19:53 -20.88649 55.50701 42 ft 18 kts 282°
2026-04-26 19:53 -20.88622 55.50574 44 ft 17 kts 290°
2026-04-26 19:53 -20.88574 55.50488 39 ft 5 kts 255°
2026-04-26 19:53 -20.88596 55.50479 41 ft 2 kts 162°
2026-04-26 19:54 -20.88605 55.50492 42 ft 3 kts 116°
2026-04-26 19:54 -20.88612 55.50529 43 ft 4 kts 100°
2026-04-26 19:54 -20.88627 55.50611 43 ft 19 kts 101°
2026-04-26 19:54 -20.88656 55.50745 44 ft 18 kts 101°
2026-04-26 19:55 -20.88683 55.50874 46 ft 14 kts 102°
2026-04-26 19:55 -20.88643 55.50883 45 ft 9 kts 311°
2026-04-26 19:55 -20.88595 55.50786 41 ft 23 kts 298°
2026-04-26 19:55 -20.88516 55.50618 34 ft 27 kts 296°
2026-04-26 19:56 -20.88420 55.50473 29 ft 16 kts 320°
2026-04-26 19:56 -20.88429 55.50438 29 ft 4 kts 160°
2026-04-26 19:56 -20.88442 55.50456 29 ft 0 kts 115°
2026-04-26 19:56 -20.88529 55.50645 33 ft 67 kts 117°
2026-04-26 19:57 -20.88852 55.51335 56 ft 138 kts 117°
2026-04-26 19:57 -20.89288 55.52326 782 ft 142 kts 114°
2026-04-26 19:57 -20.89816 55.53295 1526 ft 161 kts 125°
2026-04-26 19:57 -20.90139 55.54398 2461 ft 159 kts 82°
2026-04-26 19:58 -20.89554 55.55467 3068 ft 184 kts 42°
2026-04-26 19:58 -20.88245 55.55919 3509 ft 223 kts
2026-04-26 19:58 -20.86600 55.55743 3801 ft 253 kts 358°
2026-04-26 19:58 -20.84852 55.55049 4128 ft 286 kts 324°
2026-04-26 19:59 -20.83456 55.53543 5085 ft 289 kts 314°
2026-04-26 19:59 -20.82138 55.51897 6028 ft 294 kts 312°
2026-04-26 19:59 -20.80817 55.50214 6973 ft 295 kts 312°
2026-04-26 19:59 -20.79488 55.48533 7811 ft 301 kts 313°
2026-04-26 20:00 -20.78107 55.46813 8626 ft 307 kts 313°
2026-04-26 20:00 -20.76698 55.45082 9549 ft 308 kts 313°
2026-04-26 20:00 -20.75286 55.43362 10408 ft 311 kts 313°
2026-04-26 20:00 -20.73810 55.41578 10836 ft 331 kts 313°
2026-04-26 20:01 -20.72224 55.39673 11018 ft 356 kts 313°
2026-04-26 20:01 -20.70529 55.37644 11320 ft 375 kts 313°
2026-04-26 20:01 -20.68743 55.35508 11587 ft 392 kts 313°
2026-04-26 20:01 -20.66908 55.33315 12169 ft 398 kts 313°
2026-04-26 20:02 -20.65056 55.31104 12895 ft 400 kts 312°
2026-04-26 20:02 -20.63194 55.28882 13560 ft 403 kts 311°
2026-04-26 20:02 -20.61311 55.26639 14130 ft 407 kts 311°
2026-04-26 20:02 -20.60056 55.25145 14505 ft 409 kts 311°
2026-04-26 20:03 -20.57497 55.22100 15151 ft 415 kts 311°
2026-04-26 20:03 -20.55585 55.19826 15602 ft 420 kts 311°
2026-04-26 20:03 -20.53623 55.17494 16018 ft 425 kts 311°
2026-04-26 20:03 -20.51642 55.15141 16510 ft 427 kts 310°
2026-04-26 20:04 -20.49654 55.12780 17021 ft 428 kts 310°
2026-04-26 20:04 -20.47652 55.10405 17466 ft 431 kts 310°
2026-04-26 20:04 -20.45638 55.08016 17816 ft 436 kts 310°
2026-04-26 20:04 -20.43605 55.05605 18267 ft 437 kts 309°
2026-04-26 20:05 -20.41572 55.03195 18679 ft 438 kts 310°
2026-04-26 20:05 -20.39527 55.00773 19031 ft 440 kts 309°
2026-04-26 20:05 -20.37473 54.98343 19375 ft 443 kts 310°
2026-04-26 20:05 -20.35408 54.95899 19738 ft 444 kts 309°
2026-04-26 20:06 -20.33328 54.93439 20072 ft 447 kts 309°
2026-04-26 20:06 -20.31246 54.90977 20411 ft 448 kts 309°
2026-04-26 20:06 -20.29155 54.88502 20764 ft 450 kts 309°
2026-04-26 20:06 -20.27085 54.86052 21063 ft 452 kts 310°
2026-04-26 20:07 -20.24974 54.83556 21383 ft 454 kts 309°
2026-04-26 20:07 -20.22856 54.81057 21709 ft 455 kts 310°
2026-04-26 20:08 -20.16453 54.73510 22576 ft 461 kts 309°
2026-04-26 20:08 -20.14304 54.70977 22834 ft 463 kts 310°
2026-04-26 20:08 -20.12142 54.68428 23119 ft 464 kts 310°
2026-04-26 20:08 -20.09972 54.65872 23379 ft 466 kts 309°
2026-04-26 20:09 -20.07798 54.63311 23598 ft 467 kts 310°
2026-04-26 20:09 -20.05615 54.60742 23828 ft 468 kts 309°
2026-04-26 20:09 -20.03431 54.58175 24077 ft 468 kts 309°
2026-04-26 20:09 -20.01243 54.55604 24318 ft 468 kts 309°
2026-04-26 20:10 -19.99059 54.53040 24550 ft 469 kts 310°
2026-04-26 20:10 -19.96869 54.50469 24765 ft 469 kts 310°
2026-04-26 20:10 -19.95415 54.48760 24900 ft 470 kts 310°
2026-04-26 20:10 -19.92473 54.45307 25150 ft 472 kts 310°
2026-04-26 20:11 -19.90297 54.42755 25354 ft 472 kts 310°
2026-04-26 20:11 -19.88064 54.40138 25561 ft 472 kts 310°
2026-04-26 20:11 -19.85883 54.37582 25755 ft 473 kts 310°
2026-04-26 20:12 -19.81452 54.32393 26099 ft 475 kts 310°
2026-04-26 20:12 -19.79228 54.29790 26267 ft 476 kts 310°
2026-04-26 20:12 -19.76998 54.27182 26443 ft 477 kts 310°
2026-04-26 20:12 -19.74768 54.24575 26614 ft 477 kts 310°
2026-04-26 20:13 -19.72532 54.21963 26784 ft 478 kts 310°
2026-04-26 20:13 -19.70292 54.19345 26933 ft 478 kts 310°
2026-04-26 20:13 -19.68052 54.16730 27084 ft 479 kts 310°
2026-04-26 20:13 -19.65809 54.14112 27258 ft 479 kts 310°
2026-04-26 20:14 -19.63568 54.11497 27520 ft 477 kts 310°
2026-04-26 20:14 -19.61371 54.08936 27812 ft 475 kts 310°
2026-04-26 20:14 -19.59147 54.06343 28120 ft 473 kts 310°
2026-04-26 20:14 -19.56938 54.03768 28434 ft 471 kts 310°
2026-04-26 20:15 -19.54736 54.01204 28735 ft 470 kts 310°
2026-04-26 20:15 -19.52592 53.98603 29040 ft 467 kts 305°
2026-04-26 20:15 -19.51338 53.96695 29254 ft 465 kts 300°
2026-04-26 20:15 -19.49811 53.93748 29627 ft 461 kts 293°
2026-04-26 20:16 -19.48686 53.90581 30007 ft 457 kts 287°
2026-04-26 20:16 -19.47712 53.87385 30326 ft 455 kts 287°
2026-04-26 20:16 -19.46755 53.84194 30608 ft 454 kts 287°
2026-04-26 20:16 -19.45792 53.81008 30916 ft 453 kts 287°
2026-04-26 20:17 -19.44818 53.77824 31276 ft 451 kts 287°
2026-04-26 20:17 -19.43844 53.74677 31659 ft 448 kts 287°
2026-04-26 20:17 -19.42868 53.71548 31922 ft 448 kts 287°
2026-04-26 20:18 -19.40901 53.65265 31914 ft 448 kts 287°
2026-04-26 20:18 -19.38954 53.59052 31925 ft 446 kts 287°
2026-04-26 20:19 -19.37000 53.52822 31921 ft 445 kts 287°
2026-04-26 20:19 -19.35049 53.46611 31921 ft 444 kts 287°
2026-04-26 20:20 -19.32524 53.40648 31923 ft 446 kts 300°
2026-04-26 20:20 -19.28757 53.35417 31920 ft 448 kts 307°
2026-04-26 20:21 -19.24818 53.30300 31925 ft 449 kts 307°
2026-04-26 20:21 -19.20883 53.25157 31923 ft 450 kts 306°
2026-04-26 20:22 -19.16959 53.19988 31922 ft 451 kts 306°
2026-04-26 20:22 -19.13035 53.14806 31921 ft 452 kts 306°
2026-04-26 20:23 -19.09131 53.09651 31923 ft 452 kts 306°
2026-04-26 20:23 -19.05199 53.04466 31922 ft 452 kts 306°
2026-04-26 20:24 -19.01261 52.99279 31924 ft 452 kts 306°
2026-04-26 20:24 -18.97326 52.94099 31926 ft 452 kts 306°
2026-04-26 20:25 -18.93391 52.88924 31926 ft 451 kts 306°
2026-04-26 20:25 -18.89456 52.83753 31925 ft 451 kts 306°
2026-04-26 20:26 -18.85527 52.78594 31930 ft 450 kts 306°
2026-04-26 20:26 -18.81602 52.73445 31929 ft 450 kts 306°
2026-04-26 20:27 -18.77675 52.68297 31927 ft 450 kts 306°
2026-04-26 20:27 -18.73742 52.63145 31933 ft 450 kts 307°
2026-04-26 20:28 -18.69834 52.58031 31931 ft 450 kts 307°
2026-04-26 20:28 -18.65907 52.52897 31932 ft 450 kts 307°
2026-04-26 20:29 -18.61976 52.47760 31931 ft 450 kts 307°
2026-04-26 20:29 -18.58039 52.42620 31931 ft 450 kts 307°
2026-04-26 20:30 -18.54101 52.37483 31930 ft 450 kts 307°
2026-04-26 20:30 -18.50161 52.32349 31935 ft 451 kts 307°
2026-04-26 20:31 -18.46217 52.27213 31938 ft 451 kts 307°
2026-04-26 20:31 -18.42291 52.22104 31938 ft 451 kts 307°
2026-04-26 20:32 -18.38339 52.16965 31934 ft 451 kts 307°
2026-04-26 20:32 -18.34386 52.11830 31942 ft 451 kts 307°
2026-04-26 20:33 -18.30433 52.06699 31941 ft 451 kts 307°
2026-04-26 20:33 -18.26480 52.01571 31943 ft 451 kts 307°
2026-04-26 20:34 -18.22528 51.96450 31935 ft 451 kts 307°
2026-04-26 20:34 -18.18597 51.91360 31941 ft 451 kts 307°
2026-04-26 20:35 -18.14642 51.86242 31942 ft 451 kts 307°
2026-04-26 20:35 -18.10689 51.81131 31941 ft 450 kts 307°
2026-04-26 20:36 -18.06735 51.76022 31944 ft 450 kts 307°
2026-04-26 20:36 -18.02777 51.70913 31944 ft 450 kts 307°
2026-04-26 20:37 -17.98822 51.65811 31943 ft 450 kts 307°
2026-04-26 20:37 -17.94865 51.60711 31944 ft 450 kts 307°
2026-04-26 20:38 -17.90909 51.55616 31942 ft 450 kts 307°
2026-04-26 20:38 -17.86948 51.50519 31947 ft 450 kts 307°
2026-04-26 20:39 -17.83013 51.45460 31945 ft 450 kts 307°
2026-04-26 20:39 -17.79047 51.40364 31946 ft 451 kts 307°
2026-04-26 20:40 -17.75081 51.35272 31948 ft 451 kts 307°
2026-04-26 20:40 -17.71113 51.30181 31946 ft 451 kts 307°
2026-04-26 20:41 -17.67140 51.25088 31951 ft 451 kts 307°
2026-04-26 20:41 -17.63165 51.19997 31951 ft 451 kts 307°
2026-04-26 20:42 -17.59192 51.14911 31951 ft 451 kts 307°
2026-04-26 20:42 -17.55213 51.09822 31946 ft 451 kts 307°
2026-04-26 20:43 -17.51237 51.04739 31945 ft 451 kts 307°
2026-04-26 20:43 -17.47282 50.99687 31952 ft 451 kts 307°
2026-04-26 20:44 -17.43299 50.94608 31953 ft 451 kts 307°
2026-04-26 20:44 -17.39316 50.89539 31949 ft 451 kts 307°
2026-04-26 20:45 -17.35329 50.84471 31950 ft 451 kts 307°
2026-04-26 20:45 -17.31344 50.79405 31955 ft 451 kts 307°
2026-04-26 20:46 -17.27362 50.74347 31954 ft 450 kts 307°
2026-04-26 20:46 -17.23374 50.69284 31960 ft 450 kts 307°
2026-04-26 20:47 -17.19392 50.64234 31955 ft 450 kts 307°
2026-04-26 20:47 -17.15410 50.59187 31955 ft 450 kts 307°
2026-04-26 20:48 -17.11427 50.54141 31957 ft 450 kts 307°
2026-04-26 20:48 -17.07447 50.49104 31956 ft 449 kts 307°
2026-04-26 20:49 -17.03462 50.44064 31957 ft 449 kts 307°
2026-04-26 20:49 -16.99481 50.39033 31957 ft 449 kts 307°
2026-04-26 20:50 -16.95498 50.34004 31960 ft 449 kts 307°
2026-04-26 20:50 -16.91513 50.28975 31961 ft 449 kts 307°
2026-04-26 20:51 -16.87532 50.23955 31964 ft 449 kts 307°
2026-04-26 20:51 -16.83574 50.18967 31966 ft 449 kts 307°
2026-04-26 20:52 -16.79589 50.13949 31971 ft 449 kts 307°
2026-04-26 20:52 -16.75599 50.08928 31973 ft 448 kts 307°
2026-04-26 20:53 -16.71618 50.03920 31968 ft 448 kts 307°
2026-04-26 20:53 -16.67635 49.98915 31975 ft 448 kts 307°
2026-04-26 20:54 -16.63653 49.93915 31975 ft 448 kts 307°
2026-04-26 20:54 -16.59670 49.88914 31980 ft 448 kts 307°
2026-04-26 20:55 -16.55707 49.83941 31980 ft 448 kts 307°
2026-04-26 20:55 -16.51721 49.78942 31985 ft 448 kts 307°
2026-04-26 20:56 -16.47735 49.73947 31994 ft 448 kts 307°
2026-04-26 20:56 -16.43745 49.68950 31993 ft 448 kts 307°
2026-04-26 20:57 -16.39752 49.63954 32001 ft 448 kts 307°
2026-04-26 20:57 -16.35757 49.58957 32001 ft 448 kts 307°
2026-04-26 20:58 -16.31787 49.53996 32009 ft 448 kts 307°
2026-04-26 20:58 -16.27796 49.49013 32017 ft 448 kts 307°
2026-04-26 20:59 -16.23804 49.44031 32023 ft 448 kts 307°
2026-04-26 20:59 -16.19811 49.39051 32025 ft 448 kts 307°
2026-04-26 21:00 -16.16498 49.34922 32032 ft 448 kts 307°
2026-04-26 21:00 -16.12505 49.29948 32032 ft 447 kts 307°
2026-04-26 21:01 -16.07835 49.24135 32037 ft 447 kts 307°
2026-04-26 21:01 -16.04517 49.20007 32039 ft 447 kts 307°
2026-04-26 21:02 -15.99875 49.14240 32039 ft 447 kts 307°
2026-04-26 21:02 -15.96556 49.10122 32041 ft 447 kts 308°
2026-04-26 21:03 -15.92561 49.05169 32037 ft 447 kts 307°
2026-04-26 21:03 -15.88560 49.00208 32037 ft 447 kts 308°
2026-04-26 21:04 -15.84566 48.95259 32035 ft 447 kts 308°
2026-04-26 21:04 -15.80566 48.90307 32030 ft 447 kts 308°
2026-04-26 21:05 -15.76570 48.85363 32031 ft 447 kts 308°
2026-04-26 21:05 -15.72572 48.80418 32022 ft 447 kts 308°
2026-04-26 21:06 -15.68571 48.75475 32015 ft 447 kts 308°
2026-04-26 21:06 -15.64593 48.70561 32018 ft 447 kts 308°
2026-04-26 21:07 -15.60587 48.65618 32012 ft 448 kts 308°
2026-04-26 21:07 -15.56573 48.60667 32004 ft 448 kts 308°
2026-04-26 21:08 -15.52555 48.55716 32001 ft 448 kts 308°
2026-04-26 21:08 -15.48537 48.50768 32000 ft 448 kts 308°
2026-04-26 21:09 -15.44517 48.45821 31993 ft 448 kts 308°
2026-04-26 21:09 -15.40498 48.40878 31987 ft 449 kts 308°
2026-04-26 21:10 -15.36500 48.35964 31982 ft 448 kts 308°
2026-04-26 21:10 -15.32478 48.31023 31977 ft 448 kts 308°
2026-04-26 21:11 -15.28459 48.26089 31975 ft 448 kts 308°
2026-04-26 21:11 -15.24438 48.21157 31968 ft 448 kts 308°
2026-04-26 21:12 -15.20412 48.16222 31962 ft 448 kts 308°
2026-04-26 21:12 -15.16391 48.11295 31958 ft 448 kts 308°
2026-04-26 21:13 -15.12365 48.06366 31951 ft 448 kts 308°
2026-04-26 21:13 -15.08345 48.01447 31951 ft 448 kts 308°
2026-04-26 21:14 -15.04321 47.96526 31948 ft 448 kts 308°
2026-04-26 21:14 -15.00291 47.91602 31943 ft 448 kts 308°
2026-04-26 21:15 -14.96262 47.86682 31942 ft 448 kts 308°
2026-04-26 21:15 -14.92261 47.81798 31938 ft 448 kts 308°
2026-04-26 21:16 -14.88229 47.76882 31935 ft 448 kts 308°
2026-04-26 21:16 -14.84196 47.71965 31939 ft 448 kts 308°
2026-04-26 21:17 -14.80155 47.67042 31938 ft 449 kts 308°
2026-04-26 21:17 -14.76115 47.62125 31929 ft 449 kts 308°
2026-04-26 21:18 -14.72073 47.57207 31937 ft 449 kts 308°
2026-04-26 21:18 -14.68033 47.52295 31935 ft 449 kts 308°
2026-04-26 21:19 -14.63988 47.47381 31934 ft 449 kts 308°
2026-04-26 21:19 -14.59972 47.42504 31935 ft 449 kts 308°
2026-04-26 21:20 -14.55925 47.37592 31937 ft 449 kts 308°
2026-04-26 21:20 -14.51876 47.32682 31937 ft 449 kts 308°
2026-04-26 21:21 -14.47829 47.27776 31934 ft 449 kts 308°
2026-04-26 21:21 -14.43779 47.22870 31934 ft 449 kts 308°
2026-04-26 21:22 -14.40409 47.18790 31935 ft 449 kts 308°
2026-04-26 21:22 -14.35671 47.13059 31935 ft 449 kts 308°
2026-04-26 21:23 -14.29587 47.05703 31936 ft 449 kts 308°
2026-04-26 21:23 -14.25528 47.00800 31938 ft 450 kts 308°
2026-04-26 21:24 -14.21488 46.95923 31938 ft 450 kts 308°
2026-04-26 21:24 -14.17427 46.91022 31937 ft 450 kts 308°
2026-04-26 21:25 -14.13358 46.86117 31937 ft 450 kts 308°
2026-04-26 21:25 -14.09292 46.81217 31937 ft 450 kts 308°
2026-04-26 21:26 -14.05224 46.76317 31937 ft 450 kts 308°
2026-04-26 21:26 -14.01152 46.71416 31934 ft 450 kts 308°
2026-04-26 21:27 -13.97103 46.66545 31935 ft 450 kts 308°
2026-04-26 21:27 -13.93032 46.61650 31934 ft 450 kts 308°
2026-04-26 21:28 -13.88956 46.56753 31931 ft 450 kts 308°
2026-04-26 21:28 -13.84873 46.51850 31932 ft 451 kts 308°
2026-04-26 21:29 -13.80790 46.46950 31933 ft 451 kts 309°
2026-04-26 21:29 -13.76706 46.42051 31934 ft 451 kts 309°
2026-04-26 21:30 -13.72621 46.37153 31933 ft 451 kts 309°
2026-04-26 21:30 -13.68561 46.32289 31931 ft 451 kts 309°
2026-04-26 21:31 -13.64472 46.27392 31932 ft 451 kts 309°
2026-04-26 21:31 -13.60382 46.22497 31936 ft 451 kts 309°
2026-04-26 21:32 -13.55954 46.17908 31937 ft 453 kts 315°
2026-04-26 21:32 -13.51304 46.13536 31933 ft 453 kts 315°
2026-04-26 21:33 -13.46653 46.09160 31935 ft 453 kts 315°
2026-04-26 21:33 -13.42015 46.04767 31937 ft 453 kts 315°
2026-04-26 21:34 -13.37379 46.00364 31745 ft 456 kts 315°
2026-04-26 21:34 -13.35026 45.98126 31000 ft 461 kts 315°
2026-04-26 21:34 -13.32704 45.95921 30111 ft 461 kts 314°
2026-04-26 21:35 -13.30340 45.93676 28974 ft 463 kts 315°
2026-04-26 21:35 -13.27969 45.91425 27824 ft 465 kts 315°
2026-04-26 21:35 -13.25588 45.89165 26639 ft 468 kts 316°
2026-04-26 21:35 -13.23187 45.86888 25492 ft 471 kts 317°
2026-04-26 21:36 -13.20781 45.84607 24510 ft 470 kts 317°
2026-04-26 21:36 -13.19162 45.83072 23877 ft 468 kts 318°
2026-04-26 21:36 -13.15997 45.80074 22506 ft 465 kts 318°
2026-04-26 21:36 -13.13630 45.77832 21554 ft 461 kts 318°
2026-04-26 21:37 -13.11283 45.75610 20636 ft 456 kts 318°
2026-04-26 21:37 -13.08960 45.73411 19746 ft 452 kts 318°
2026-04-26 21:37 -13.06655 45.71229 18835 ft 449 kts 318°
2026-04-26 21:37 -13.04363 45.69062 17880 ft 447 kts 318°
2026-04-26 21:38 -13.02084 45.66906 16918 ft 444 kts 318°
2026-04-26 21:38 -12.99835 45.64778 16005 ft 439 kts 317°
2026-04-26 21:38 -12.97609 45.62674 15165 ft 433 kts 317°
2026-04-26 21:38 -12.95411 45.60596 14431 ft 425 kts 317°
2026-04-26 21:39 -12.93238 45.58543 13607 ft 422 kts 317°
2026-04-26 21:39 -12.91092 45.56515 12644 ft 419 kts 317°
2026-04-26 21:39 -12.88970 45.54511 11787 ft 413 kts 317°
2026-04-26 21:39 -12.86878 45.52534 11177 ft 404 kts 317°
2026-04-26 21:40 -12.84849 45.50619 10906 ft 387 kts 317°
2026-04-26 21:40 -12.82919 45.48798 10763 ft 368 kts 317°
2026-04-26 21:40 -12.81081 45.47062 10642 ft 350 kts 317°
2026-04-26 21:40 -12.79330 45.45410 10497 ft 336 kts 317°
2026-04-26 21:41 -12.77648 45.43823 10377 ft 322 kts 317°
2026-04-26 21:41 -12.76056 45.42321 10265 ft 309 kts 317°
2026-04-26 21:41 -12.74509 45.40862 10177 ft 297 kts 317°
2026-04-26 21:41 -12.73006 45.39446 9936 ft 291 kts 317°
2026-04-26 21:42 -12.71532 45.38056 9585 ft 285 kts 317°
2026-04-26 21:42 -12.70075 45.36682 9013 ft 285 kts 317°
2026-04-26 21:42 -12.68614 45.35306 8436 ft 285 kts 317°
2026-04-26 21:42 -12.67162 45.33937 7955 ft 282 kts 317°
2026-04-26 21:43 -12.65724 45.32582 7437 ft 280 kts 317°
2026-04-26 21:43 -12.64291 45.31232 6936 ft 279 kts 317°
2026-04-26 21:43 -12.62869 45.29892 6467 ft 277 kts 317°
2026-04-26 21:43 -12.61464 45.28569 6099 ft 271 kts 317°
2026-04-26 21:44 -12.60097 45.27282 5753 ft 264 kts 317°
2026-04-26 21:44 -12.58782 45.26045 5625 ft 249 kts 317°
2026-04-26 21:44 -12.57527 45.24864 5523 ft 242 kts 316°
2026-04-26 21:44 -12.56590 45.23463 5425 ft 240 kts 285°
2026-04-26 21:45 -12.56505 45.21766 5304 ft 245 kts 254°
2026-04-26 21:45 -12.57158 45.20160 5056 ft 244 kts 239°
2026-04-26 21:45 -12.57999 45.18678 4776 ft 243 kts 237°
2026-04-26 21:45 -12.59113 45.17411 4456 ft 239 kts 210°
2026-04-26 21:46 -12.60651 45.16883 4183 ft 233 kts 181°
2026-04-26 21:46 -12.62228 45.17131 3919 ft 230 kts 157°
2026-04-26 21:46 -12.63642 45.17873 3654 ft 227 kts 150°
2026-04-26 21:46 -12.65001 45.18696 3371 ft 227 kts 149°
2026-04-26 21:47 -12.66354 45.19517 3093 ft 226 kts 150°
2026-04-26 21:47 -12.67687 45.20326 2804 ft 216 kts 150°
2026-04-26 21:47 -12.68937 45.21078 2547 ft 201 kts 150°
2026-04-26 21:47 -12.70090 45.21767 2294 ft 189 kts 150°
2026-04-26 21:48 -12.70823 45.22204 2113 ft 180 kts 150°
2026-04-26 21:48 -12.72195 45.23023 1836 ft 166 kts 151°
2026-04-26 21:48 -12.72850 45.23413 1698 ft 162 kts 152°
2026-04-26 21:48 -12.73823 45.23991 1481 ft 162 kts 152°
2026-04-26 21:49 -12.74477 45.24378 1322 ft 166 kts 152°
2026-04-26 21:49 -12.75805 45.25167 1110 ft 160 kts 151°
2026-04-26 21:49 -12.76691 45.25689 972 ft 133 kts 152°
2026-04-26 21:49 -12.77488 45.26162 715 ft 134 kts 153°
2026-04-26 21:50 -12.77748 45.26319 643 ft 134 kts 152°
2026-04-26 21:50 -12.79149 45.27157 312 ft 141 kts 153°
2026-04-26 21:50 -12.80265 45.27815 56 ft 140 kts 150°
2026-04-26 21:50 -12.81010 45.28258 52 ft 97 kts 149°
2026-04-26 21:51 -12.81319 45.28444 64 ft 55 kts 152°
2026-04-26 21:51 -12.81492 45.28529 67 ft 13 kts 164°
2026-04-26 21:51 -12.81504 45.28545 62 ft 4 kts 38°
2026-04-26 21:51 -12.81437 45.28514 59 ft 16 kts 329°
2026-04-26 21:52 -12.81313 45.28441 64 ft 22 kts 330°
2026-04-26 21:52 -12.81174 45.28358 58 ft 24 kts 330°
2026-04-26 21:52 -12.81029 45.28272 51 ft 25 kts 330°
2026-04-26 21:52 -12.80978 45.28242 51 ft 26 kts 330°
2026-04-26 21:53 -12.80877 45.28184 48 ft 10 kts 330°
2026-04-26 21:53 -12.80847 45.28166 45 ft 18 kts 330°
2026-04-26 21:53 -12.80662 45.28079 46 ft 11 kts 32°
2026-04-26 21:53 -12.80634 45.28120 45 ft 5 kts 59°
2026-04-26 21:54 -12.80613 45.28143 45 ft 3 kts 24°
2026-04-26 21:54 -12.80595 45.28142 45 ft 3 kts 342°
2026-04-26 21:54 -12.80579 45.28132 45 ft 3 kts 327°
2026-04-26 21:54 -12.80572 45.28140 45 ft 5 kts 134°
2026-04-26 21:55 -12.80650 45.28077 44 ft 23 kts 275°
2026-04-26 21:55 -12.80499 45.27968 44 ft 28 kts 354°
2026-04-26 21:55 -12.80387 45.28094 46 ft 22 kts 60°
2026-04-26 21:55 -12.80318 45.28135 46 ft 5 kts 36°
2026-04-26 21:56 -12.80313 45.28167 46 ft 5 kts 89°
2026-04-26 21:56 -12.80313 45.28181 46 ft 0 kts 89°